Voltar ao catálogo

STARLINK-37067

AtivoComunicaçõesVLEO
NORAD 68086·PAYLOAD·🇺🇸 United States

Lançado Mar 4, 2026 de Vandenberg Space Force Base

Loading…

Próximas Passagens (próximas 24 horas)

TLE

AtualizadoSource: CelesTrak SupGP

Época: Sep 15, 2026, 02:56 UTC

1 68086C 26042T   26258.12270833  .00050182  00000+0  14831-2 0  2583
2 68086  53.1595  13.0695 0001143  93.5806  94.1137 15.34356098    12

Acompanhe STARLINK-37067 em tempo real com AllMySat

Download on the App Store